| time (UTC) | temp F | wind direction | speed MPH | gust MPH | rain 1hr in | rain 24hr in | rain mn in | humidity % | barometer mb |
| 20260510220819 | 65 | 332 | 1.0 | 8.0 | 0.00 | 0.21 | 0.14 | 41 | 1016.4 |
| 20260510220318 | 66 | 5 | 2.0 | 11.0 | 0.00 | 0.21 | 0.14 | 48 | 1016.3 |
| 20260510215818 | 66 | 311 | 2.0 | 11.0 | 0.00 | 0.21 | 0.14 | 46 | 1016.2 |
| 20260510215318 | 67 | 223 | 1.0 | 6.0 | 0.00 | 0.21 | 0.14 | 50 | 1016.4 |
| 20260510214817 | 66 | 338 | 1.0 | 7.0 | 0.00 | 0.21 | 0.14 | 43 | 1016.2 |
| 20260510213817 | 65 | 40 | 2.0 | 7.0 | 0.00 | 0.21 | 0.14 | 46 | 1016.2 |
| 20260510213317 | 64 | 14 | 2.0 | 11.0 | 0.00 | 0.21 | 0.14 | 49 | 1016.2 |
| 20260510212817 | 65 | 304 | 1.0 | 11.0 | 0.00 | 0.21 | 0.14 | 42 | 1016.2 |
| 20260510212317 | 66 | 338 | 3.0 | 11.0 | 0.00 | 0.21 | 0.14 | 46 | 1016.1 |
| 20260510211817 | 65 | 16 | 4.0 | 8.0 | 0.00 | 0.21 | 0.14 | 51 | 1015.7 |
| 20260510210316 | 64 | 344 | 4.0 | 5.0 | 0.00 | 0.21 | 0.14 | 47 | 1015.4 |
| 20260510205816 | 64 | 34 | 1.0 | 5.0 | 0.00 | 0.21 | 0.14 | 43 | 1015.4 |
| 20260510205316 | 65 | 340 | 2.0 | 7.0 | 0.00 | 0.21 | 0.14 | 44 | 1015.2 |
| 20260510204816 | 66 | 186 | 5.0 | 7.0 | 0.00 | 0.21 | 0.14 | 42 | 1015.4 |
| 20260510204315 | 66 | 342 | 0.0 | 10.0 | 0.00 | 0.21 | 0.14 | 45 | 1015.4 |
| 20260510203815 | 66 | 326 | 1.0 | 10.0 | 0.00 | 0.21 | 0.14 | 43 | 1015.4 |
| 20260510203315 | 66 | 250 | 2.0 | 7.0 | 0.00 | 0.21 | 0.14 | 43 | 1015.3 |
| 20260510201815 | 67 | 340 | 3.0 | 8.0 | 0.00 | 0.21 | 0.14 | 51 | 1015.5 |
| 20260510201315 | 66 | 236 | 3.0 | 9.0 | 0.00 | 0.21 | 0.14 | 45 | 1015.5 |
| 20260510200815 | 66 | 355 | 2.0 | 9.0 | 0.00 | 0.21 | 0.14 | 42 | 1015.6 |
| 20260510200314 | 66 | 232 | 3.0 | 4.0 | 0.00 | 0.21 | 0.14 | 45 | 1015.8 |
| 20260510195814 | 65 | 138 | 0.0 | 8.0 | 0.00 | 0.21 | 0.14 | 41 | 1015.8 |
| 20260510195314 | 65 | 271 | 1.0 | 11.0 | 0.00 | 0.21 | 0.14 | 42 | 1015.8 |
| 20260510194314 | 66 | 13 | 5.0 | 14.0 | 0.00 | 0.21 | 0.14 | 45 | 1015.8 |
| 20260510193314 | 66 | 332 | 5.0 | 7.0 | 0.00 | 0.21 | 0.14 | 47 | 1015.8 |
| 20260510192813 | 66 | 184 | 0.0 | 7.0 | 0.00 | 0.21 | 0.14 | 45 | 1015.9 |
| 20260510192313 | 66 | 263 | 2.0 | 16.0 | 0.00 | 0.21 | 0.14 | 40 | 1015.9 |
| 20260510191313 | 67 | 336 | 6.0 | 12.0 | 0.00 | 0.21 | 0.14 | 44 | 1016.0 |
| 20260510185813 | 67 | 355 | 4.0 | 6.0 | 0.00 | 0.21 | 0.14 | 51 | 1015.9 |
| 20260510185312 | 67 | 153 | 0.0 | 5.0 | 0.00 | 0.21 | 0.14 | 44 | 1015.8 |
| 20260510184812 | 66 | 26 | 2.0 | 7.0 | 0.00 | 0.21 | 0.14 | 52 | 1015.9 |
| 20260510184312 | 66 | 250 | 2.0 | 7.0 | 0.00 | 0.21 | 0.14 | 45 | 1016.0 |
| 20260510183311 | 66 | 304 | 4.0 | 8.0 | 0.00 | 0.21 | 0.14 | 48 | 1015.9 |
| 20260510182811 | 66 | 338 | 4.0 | 7.0 | 0.00 | 0.21 | 0.14 | 47 | 1015.8 |
| 20260510182311 | 66 | 76 | 1.0 | 7.0 | 0.00 | 0.21 | 0.14 | 47 | 1015.6 |
| 20260510181811 | 66 | 310 | 3.0 | 7.0 | 0.00 | 0.21 | 0.14 | 52 | 1015.7 |
| 20260510181311 | 66 | 38 | 2.0 | 7.0 | 0.00 | 0.21 | 0.14 | 50 | 1015.7 |
| 20260510180811 | 66 | 29 | 4.0 | 7.0 | 0.00 | 0.21 | 0.14 | 52 | 1015.7 |
| 20260510175811 | 64 | 5 | 4.0 | 9.0 | 0.00 | 0.21 | 0.14 | 50 | 1015.4 |
| 20260510174810 | 65 | 332 | 5.0 | 7.0 | 0.00 | 0.21 | 0.14 | 51 | 1015.7 |
| 20260510174310 | 65 | 69 | 1.0 | 7.0 | 0.00 | 0.21 | 0.14 | 44 | 1015.5 |
| 20260510173810 | 66 | 294 | 5.0 | 6.0 | 0.00 | 0.21 | 0.14 | 54 | 1015.7 |
| 20260510173310 | 66 | 195 | 1.0 | 7.0 | 0.00 | 0.21 | 0.14 | 47 | 1015.9 |
| 20260510172810 | 66 | 257 | 3.0 | 7.0 | 0.00 | 0.21 | 0.14 | 52 | 1016.0 |
| 20260510172309 | 65 | 53 | 0.0 | 7.0 | 0.00 | 0.21 | 0.14 | 46 | 1015.7 |
| 20260510170809 | 67 | 76 | 3.0 | 4.0 | 0.00 | 0.21 | 0.14 | 55 | 1015.5 |
| 20260510165809 | 65 | 15 | 1.0 | 9.0 | 0.00 | 0.21 | 0.14 | 48 | 1015.6 |
| 20260510165309 | 66 | 321 | 4.0 | 9.0 | 0.00 | 0.21 | 0.14 | 58 | 1015.6 |
| 20260510164808 | 65 | 80 | 2.0 | 10.0 | 0.00 | 0.21 | 0.14 | 59 | 1015.6 |
| 20260510164308 | 64 | 246 | 6.0 | 10.0 | 0.00 | 0.21 | 0.14 | 47 | 1015.5 |
| 20260510163808 | 64 | 338 | 1.0 | 7.0 | 0.00 | 0.21 | 0.14 | 48 | 1015.7 |
| 20260510163308 | 65 | 355 | 0.0 | 7.0 | 0.00 | 0.21 | 0.14 | 51 | 1015.8 |
| 20260510162308 | 64 | 336 | 1.0 | 5.0 | 0.00 | 0.21 | 0.14 | 49 | 1015.8 |
| 20260510161808 | 65 | 5 | 4.0 | 8.0 | 0.00 | 0.21 | 0.14 | 52 | 1015.8 |
| 20260510160807 | 63 | 75 | 0.0 | 9.0 | 0.00 | 0.21 | 0.14 | 55 | 1015.7 |
| 20260510160307 | 65 | 355 | 5.0 | 9.0 | 0.00 | 0.21 | 0.14 | 61 | 1015.8 |
| 20260510155807 | 64 | 80 | 1.0 | 5.0 | 0.00 | 0.21 | 0.14 | 62 | 1015.8 |
| 20260510154806 | 65 | 13 | 1.0 | 7.0 | 0.00 | 0.21 | 0.14 | 50 | 1015.7 |
| 20260510153806 | 64 | 17 | 1.0 | 6.0 | 0.00 | 0.21 | 0.14 | 59 | 1015.8 |
| 20260510153306 | 64 | 94 | 2.0 | 6.0 | 0.00 | 0.21 | 0.14 | 59 | 1015.7 |
| 20260510152806 | 62 | 13 | 2.0 | 7.0 | 0.00 | 0.21 | 0.14 | 58 | 1015.5 |
| 20260510152307 | 64 | 26 | 3.0 | 10.0 | 0.00 | 0.21 | 0.14 | 66 | 1015.5 |
| 20260510150805 | 63 | 100 | 2.0 | 8.0 | 0.00 | 0.21 | 0.14 | 65 | 1015.3 |
| 20260510145805 | 62 | 84 | 8.0 | 9.0 | 0.00 | 0.21 | 0.14 | 60 | 1015.4 |
| 20260510145306 | 63 | 57 | 0.0 | 6.0 | 0.00 | 0.21 | 0.14 | 71 | 1015.3 |
| 20260510144804 | 62 | 344 | 3.0 | 7.0 | 0.00 | 0.21 | 0.14 | 68 | 1015.1 |
| 20260510144305 | 62 | 343 | 1.0 | 7.0 | 0.00 | 0.21 | 0.14 | 66 | 1015.1 |
| 20260510143304 | 62 | 88 | 2.0 | 7.0 | 0.00 | 0.21 | 0.14 | 70 | 1015.0 |
| 20260510142804 | 62 | 88 | 1.0 | 6.0 | 0.00 | 0.21 | 0.14 | 66 | 1014.8 |
| 20260510141804 | 61 | 30 | 6.0 | 7.0 | 0.00 | 0.21 | 0.14 | 67 | 1014.7 |
| 20260510140804 | 61 | 17 | 2.0 | 5.0 | 0.00 | 0.21 | 0.14 | 68 | 1014.6 |
| 20260510140303 | 61 | 163 | 0.0 | 6.0 | 0.00 | 0.21 | 0.14 | 72 | 1014.6 |
| 20260510135803 | 60 | 68 | 1.0 | 6.0 | 0.00 | 0.21 | 0.14 | 68 | 1014.6 |
| 20260510135306 | 60 | 77 | 3.0 | 6.0 | 0.00 | 0.21 | 0.14 | 66 | 1014.5 |
| 20260510134333 | 60 | 97 | 1.0 | 8.0 | 0.00 | 0.21 | 0.14 | 71 | 1014.4 |
| 20260510133332 | 59 | 111 | 3.0 | 5.0 | 0.00 | 0.21 | 0.14 | 70 | 1014.0 |
| 20260510131832 | 57 | 330 | 1.0 | 7.0 | 0.00 | 0.21 | 0.14 | 73 | 1013.9 |
| 20260510131331 | 56 | 101 | 2.0 | 7.0 | 0.00 | 0.21 | 0.14 | 77 | 1013.5 |
| 20260510130331 | 55 | 340 | 1.0 | 8.0 | 0.00 | 0.21 | 0.14 | 74 | 1013.4 |
| 20260510125831 | 55 | 42 | 2.0 | 7.0 | 0.00 | 0.21 | 0.14 | 76 | 1013.4 |
| 20260510124831 | 55 | 48 | 2.0 | 7.0 | 0.00 | 0.21 | 0.14 | 73 | 1013.4 |
| 20260510124331 | 55 | 355 | 2.0 | 9.0 | 0.00 | 0.21 | 0.14 | 74 | 1013.2 |
| 20260510123830 | 56 | 5 | 2.0 | 9.0 | 0.00 | 0.21 | 0.14 | 74 | 1013.1 |
| 20260510123331 | 56 | 360 | 4.0 | 7.0 | 0.00 | 0.21 | 0.14 | 76 | 1013.2 |
| 20260510122830 | 56 | 24 | 0.0 | 4.0 | 0.00 | 0.21 | 0.14 | 74 | 1013.2 |
| 20260510122330 | 55 | 355 | 0.0 | 4.0 | 0.00 | 0.21 | 0.14 | 79 | 1012.9 |
| 20260510121830 | 55 | 74 | 0.0 | 5.0 | 0.00 | 0.21 | 0.14 | 80 | 1012.7 |
| 20260510121330 | 55 | 20 | 0.0 | 5.0 | 0.00 | 0.21 | 0.14 | 75 | 1012.7 |
| 20260510120830 | 55 | 37 | 0.0 | 3.0 | 0.00 | 0.21 | 0.14 | 79 | 1012.8 |
| 20260510120330 | 55 | 265 | 0.0 | 3.0 | 0.00 | 0.21 | 0.14 | 80 | 1012.8 |
| 20260510115830 | 55 | 341 | 1.0 | 3.0 | 0.00 | 0.21 | 0.14 | 80 | 1012.9 |
| 20260510115329 | 55 | 68 | 0.0 | 3.0 | 0.00 | 0.21 | 0.14 | 80 | 1012.9 |
| 20260510114829 | 54 | 324 | 0.0 | 1.0 | 0.00 | 0.21 | 0.14 | 79 | 1012.6 |
| 20260510113829 | 53 | 10 | 0.0 | 4.0 | 0.00 | 0.21 | 0.14 | 77 | 1012.2 |
| 20260510113329 | 53 | 20 | 0.0 | 4.0 | 0.00 | 0.21 | 0.14 | 78 | 1012.2 |
| 20260510112829 | 52 | 14 | 2.0 | 4.0 | 0.00 | 0.21 | 0.14 | 80 | 1012.1 |
| 20260510112328 | 51 | 26 | 1.0 | 4.0 | 0.00 | 0.21 | 0.14 | 81 | 1012.1 |
| 20260510111828 | 50 | 338 | 0.0 | 2.0 | 0.00 | 0.21 | 0.14 | 83 | 1012.0 |
| 20260510110828 | 51 | 24 | 0.0 | 2.0 | 0.00 | 0.21 | 0.14 | 82 | 1012.0 |
| 20260510110327 | 52 | 32 | 0.0 | 3.0 | 0.00 | 0.21 | 0.14 | 82 | 1011.9 |
| 20260510105328 | 52 | 82 | 1.0 | 3.0 | 0.00 | 0.21 | 0.14 | 80 | 1011.8 |
| 20260510104828 | 53 | 201 | 0.0 | 3.0 | 0.00 | 0.21 | 0.14 | 78 | 1011.8 |
| 20260510104327 | 52 | 264 | 0.0 | 3.0 | 0.00 | 0.21 | 0.14 | 81 | 1011.7 |
| 20260510103827 | 52 | 38 | 0.0 | 3.0 | 0.00 | 0.21 | 0.14 | 82 | 1011.5 |
| 20260510103327 | 53 | 294 | 1.0 | 3.0 | 0.00 | 0.21 | 0.14 | 81 | 1011.7 |
| 20260510102827 | 53 | 27 | 0.0 | 1.0 | 0.00 | 0.21 | 0.14 | 82 | 1011.7 |
| 20260510102326 | 53 | 212 | 0.0 | 2.0 | 0.00 | 0.22 | 0.14 | 82 | 1011.7 |
| 20260510101826 | 53 | 324 | 0.0 | 3.0 | 0.00 | 0.22 | 0.14 | 79 | 1011.5 |
| 20260510101326 | 53 | 350 | 0.0 | 4.0 | 0.00 | 0.22 | 0.14 | 81 | 1011.4 |
| 20260510100826 | 53 | 327 | 1.0 | 4.0 | 0.00 | 0.22 | 0.14 | 79 | 1011.4 |
| 20260510100326 | 53 | 343 | 2.0 | 2.0 | 0.00 | 0.22 | 0.14 | 80 | 1011.3 |
| 20260510095826 | 53 | 351 | 0.0 | 3.0 | 0.00 | 0.22 | 0.14 | 79 | 1011.2 |
| 20260510095326 | 53 | 12 | 0.0 | 3.0 | 0.00 | 0.22 | 0.14 | 81 | 1011.0 |
| 20260510094825 | 53 | 334 | 0.0 | 3.0 | 0.00 | 0.22 | 0.14 | 80 | 1010.8 |
| 20260510094325 | 53 | 22 | 1.0 | 2.0 | 0.00 | 0.22 | 0.14 | 80 | 1010.7 |
| 20260510093825 | 53 | 351 | 1.0 | 6.0 | 0.00 | 0.22 | 0.14 | 80 | 1010.8 |
| 20260510093325 | 54 | 350 | 1.0 | 6.0 | 0.00 | 0.22 | 0.14 | 77 | 1010.8 |
| 20260510092324 | 54 | 24 | 5.0 | 5.0 | 0.00 | 0.22 | 0.14 | 78 | 1010.8 |
| 20260510091825 | 53 | 47 | 1.0 | 5.0 | 0.00 | 0.22 | 0.14 | 79 | 1010.7 |
| 20260510091324 | 53 | 94 | 4.0 | 5.0 | 0.00 | 0.22 | 0.14 | 80 | 1010.6 |
| 20260510090825 | 54 | 348 | 1.0 | 5.0 | 0.00 | 0.22 | 0.14 | 78 | 1010.7 |
| 20260510090325 | 54 | 317 | 1.0 | 5.0 | 0.00 | 0.22 | 0.14 | 77 | 1010.6 |
| 20260510085824 | 54 | 360 | 5.0 | 5.0 | 0.00 | 0.22 | 0.14 | 78 | 1010.5 |
| 20260510085324 | 54 | 32 | 1.0 | 6.0 | 0.00 | 0.22 | 0.14 | 79 | 1010.5 |
| 20260510084823 | 55 | 355 | 2.0 | 6.0 | 0.00 | 0.22 | 0.14 | 76 | 1010.7 |
| 20260510084323 | 54 | 355 | 2.0 | 4.0 | 0.00 | 0.22 | 0.14 | 80 | 1010.2 |
| 20260510083824 | 54 | 11 | 2.0 | 4.0 | 0.00 | 0.22 | 0.14 | 81 | 1010.1 |
| 20260510083323 | 54 | 348 | 2.0 | 4.0 | 0.00 | 0.22 | 0.14 | 80 | 1010.1 |
| 20260510082823 | 54 | 340 | 2.0 | 4.0 | 0.00 | 0.22 | 0.14 | 82 | 1010.0 |
| 20260510081823 | 54 | 345 | 0.0 | 6.0 | 0.00 | 0.22 | 0.14 | 80 | 1010.0 |
| 20260510081323 | 54 | 360 | 3.0 | 5.0 | 0.00 | 0.22 | 0.14 | 82 | 1009.9 |
| 20260510080822 | 54 | 5 | 0.0 | 4.0 | 0.00 | 0.23 | 0.14 | 81 | 1009.6 |
| 20260510080322 | 55 | 350 | 1.0 | 4.0 | 0.00 | 0.23 | 0.14 | 80 | 1010.0 |
| 20260510075822 | 55 | 310 | 2.0 | 6.0 | 0.00 | 0.23 | 0.14 | 77 | 1010.0 |
| 20260510075322 | 55 | 347 | 2.0 | 6.0 | 0.00 | 0.24 | 0.14 | 78 | 1009.4 |
| 20260510074822 | 55 | 55 | 1.0 | 6.0 | 0.00 | 0.24 | 0.14 | 78 | 1009.4 |
| 20260510074322 | 55 | 29 | 2.0 | 5.0 | 0.00 | 0.24 | 0.14 | 80 | 1009.4 |
| 20260510073821 | 55 | 41 | 3.0 | 6.0 | 0.00 | 0.25 | 0.14 | 80 | 1009.3 |
| 20260510073321 | 56 | 5 | 1.0 | 6.0 | 0.00 | 0.25 | 0.14 | 79 | 1009.3 |
| 20260510072821 | 56 | 20 | 2.0 | 5.0 | 0.00 | 0.25 | 0.14 | 80 | 1009.1 |
| 20260510072321 | 56 | 22 | 2.0 | 9.0 | 0.00 | 0.25 | 0.14 | 81 | 1009.2 |
| 20260510071321 | 56 | 343 | 9.0 | 9.0 | 0.00 | 0.25 | 0.14 | 82 | 1009.4 |
| 20260510070821 | 56 | 17 | 3.0 | 5.0 | 0.00 | 0.25 | 0.14 | 83 | 1009.2 |
| 20260510070321 | 56 | 355 | 0.0 | 5.0 | 0.00 | 0.25 | 0.14 | 84 | 1009.0 |
| 20260510064820 | 56 | 355 | 2.0 | 9.0 | 0.00 | 0.25 | 0.14 | 89 | 1009.1 |
| 20260510064320 | 56 | 351 | 6.0 | 8.0 | 0.00 | 0.25 | 0.14 | 92 | 1009.0 |
| 20260510063820 | 55 | 340 | 3.0 | 4.0 | 0.00 | 0.25 | 0.14 | 93 | 1009.0 |
| 20260510062819 | 55 | 277 | 0.0 | 2.0 | 0.00 | 0.25 | 0.14 | 93 | 1009.2 |
| 20260510062319 | 55 | 268 | 0.0 | 2.0 | 0.00 | 0.25 | 0.14 | 93 | 1009.2 |
| 20260510061819 | 55 | 252 | 0.0 | 3.0 | 0.00 | 0.25 | 0.14 | 93 | 1009.0 |
| 20260510061318 | 55 | 310 | 0.0 | 3.0 | 0.00 | 0.25 | 0.14 | 94 | 1009.1 |
| 20260510060819 | 54 | 360 | 1.0 | 1.0 | 0.00 | 0.25 | 0.14 | 93 | 1008.9 |
| 20260510060319 | 54 | 225 | 0.0 | 0.0 | 0.00 | 0.26 | 0.14 | 93 | 1008.8 |
| 20260510055818 | 54 | 225 | 0.0 | 0.0 | 0.00 | 0.26 | 0.14 | 93 | 1008.7 |
| 20260510055318 | 54 | 225 | 0.0 | 0.0 | 0.00 | 0.26 | 0.14 | 92 | 1008.8 |
| 20260510053818 | 55 | 225 | 0.0 | 0.0 | 0.02 | 0.29 | 0.14 | 92 | 1008.7 |
| 20260510052817 | 55 | 225 | 0.0 | 0.0 | 0.05 | 0.30 | 0.14 | 91 | 1008.6 |
| 20260510052317 | 56 | 225 | 0.0 | 0.0 | 0.06 | 0.31 | 0.14 | 91 | 1008.4 |
| 20260510051818 | 56 | 225 | 0.0 | 0.0 | 0.08 | 0.33 | 0.14 | 90 | 1008.3 |
| 20260510051317 | 57 | 225 | 0.0 | 0.0 | 0.11 | 0.34 | 0.14 | 90 | 1008.3 |
| 20260510050816 | 57 | 225 | 0.0 | 3.0 | 0.12 | 0.34 | 0.14 | 89 | 1008.3 |
| 20260510050317 | 58 | 225 | 0.0 | 3.0 | 0.14 | 0.35 | 0.14 | 89 | 1008.4 |
| 20260510045817 | 58 | 260 | 0.0 | 1.0 | 0.18 | 0.35 | 0.14 | 89 | 1008.3 |
| 20260510044816 | 59 | 264 | 0.0 | 10.0 | 0.21 | 0.36 | 0.14 | 85 | 1008.4 |
| 20260510044316 | 59 | 195 | 5.0 | 10.0 | 0.21 | 0.37 | 0.14 | 83 | 1008.5 |
| 20260510043816 | 59 | 204 | 2.0 | 10.0 | 0.19 | 0.36 | 0.12 | 85 | 1008.8 |
| 20260510043315 | 58 | 273 | 2.0 | 12.0 | 0.18 | 0.35 | 0.11 | 85 | 1008.8 |
| 20260510041815 | 60 | 269 | 10.0 | 19.0 | 0.13 | 0.34 | 0.06 | 81 | 1009.3 |
| 20260510041315 | 60 | 315 | 6.0 | 14.0 | 0.10 | 0.32 | 0.03 | 83 | 1009.2 |
| 20260510040815 | 60 | 295 | 4.0 | 15.0 | 0.09 | 0.31 | 0.02 | 81 | 1009.0 |
| 20260510040315 | 61 | 238 | 4.0 | 15.0 | 0.07 | 0.30 | 0.00 | 83 | 1009.2 |
| 20260510035314 | 61 | 329 | 2.0 | 5.0 | 0.01 | 0.25 | 0.24 | 83 | 1008.4 |
| 20260510034814 | 61 | 188 | 1.0 | 4.0 | 0.00 | 0.25 | 0.23 | 83 | 1008.4 |
| 20260510034314 | 62 | 258 | 0.0 | 4.0 | 0.00 | 0.25 | 0.23 | 80 | 1008.2 |
| 20260510033814 | 64 | 259 | 1.0 | 9.0 | 0.00 | 0.25 | 0.23 | 74 | 1008.1 |
| 20260510033314 | 65 | 208 | 3.0 | 9.0 | 0.00 | 0.25 | 0.23 | 70 | 1007.7 |
| 20260510032814 | 65 | 139 | 1.0 | 6.0 | 0.00 | 0.25 | 0.23 | 69 | 1007.6 |
| 20260510032314 | 65 | 193 | 0.0 | 10.0 | 0.00 | 0.25 | 0.23 | 69 | 1007.5 |
| 20260510031814 | 65 | 180 | 6.0 | 11.0 | 0.00 | 0.25 | 0.23 | 69 | 1007.5 |
| 20260510030813 | 65 | 229 | 3.0 | 9.0 | 0.00 | 0.26 | 0.23 | 70 | 1007.6 |
| 20260510030313 | 64 | 199 | 1.0 | 7.0 | 0.00 | 0.27 | 0.23 | 69 | 1007.6 |
| 20260510025813 | 64 | 227 | 2.0 | 9.0 | 0.00 | 0.28 | 0.23 | 69 | 1007.4 |
| 20260510024813 | 64 | 230 | 6.0 | 7.0 | 0.00 | 0.30 | 0.23 | 69 | 1007.5 |
| 20260510024312 | 64 | 199 | 2.0 | 10.0 | 0.00 | 0.31 | 0.23 | 68 | 1007.5 |
| 20260510023812 | 65 | 201 | 1.0 | 10.0 | 0.00 | 0.32 | 0.23 | 68 | 1007.7 |
| 20260510023312 | 65 | 178 | 2.0 | 9.0 | 0.00 | 0.32 | 0.23 | 68 | 1007.6 |
| 20260510022812 | 65 | 210 | 7.0 | 9.0 | 0.00 | 0.32 | 0.23 | 67 | 1007.5 |
| 20260510022312 | 65 | 199 | 2.0 | 7.0 | 0.00 | 0.33 | 0.23 | 67 | 1007.5 |
| 20260510021811 | 65 | 226 | 5.0 | 7.0 | 0.00 | 0.33 | 0.23 | 67 | 1007.4 |
| 20260510021311 | 65 | 217 | 5.0 | 7.0 | 0.00 | 0.33 | 0.23 | 67 | 1007.4 |
| 20260510015811 | 65 | 202 | 1.0 | 5.0 | 0.00 | 0.34 | 0.23 | 67 | 1007.0 |
| 20260510015311 | 65 | 215 | 1.0 | 5.0 | 0.00 | 0.34 | 0.23 | 67 | 1006.9 |
| 20260510014810 | 64 | 222 | 2.0 | 5.0 | 0.00 | 0.34 | 0.23 | 68 | 1006.8 |
| 20260510014312 | 63 | 209 | 3.0 | 5.0 | 0.00 | 0.34 | 0.23 | 70 | 1006.6 |
| 20260510013810 | 61 | 219 | 2.0 | 3.0 | 0.00 | 0.34 | 0.23 | 74 | 1006.5 |
| 20260510013310 | 60 | 207 | 0.0 | 0.0 | 0.00 | 0.34 | 0.23 | 77 | 1006.5 |
| 20260510012810 | 61 | 207 | 0.0 | 0.0 | 0.00 | 0.34 | 0.23 | 75 | 1006.4 |
| 20260510012310 | 63 | 207 | 0.0 | 0.0 | 0.00 | 0.34 | 0.23 | 70 | 1006.4 |
| 20260510011810 | 65 | 207 | 0.0 | 3.0 | 0.00 | 0.34 | 0.23 | 67 | 1006.3 |
| 20260510010809 | 66 | 340 | 1.0 | 7.0 | 0.00 | 0.35 | 0.23 | 62 | 1006.3 |
| 20260510010309 | 66 | 178 | 2.0 | 7.0 | 0.00 | 0.35 | 0.23 | 62 | 1006.2 |
| 20260510005309 | 67 | 157 | 1.0 | 7.0 | 0.00 | 0.35 | 0.23 | 60 | 1005.9 |
| 20260510004809 | 68 | 200 | 2.0 | 7.0 | 0.00 | 0.35 | 0.23 | 59 | 1005.9 |
| 20260510004309 | 68 | 215 | 2.0 | 9.0 | 0.00 | 0.35 | 0.23 | 58 | 1005.9 |
| 20260510003809 | 68 | 236 | 2.0 | 9.0 | 0.00 | 0.35 | 0.23 | 59 | 1005.8 |
| 20260510003309 | 68 | 294 | 1.0 | 8.0 | 0.00 | 0.36 | 0.23 | 58 | 1005.6 |
| 20260510002308 | 69 | 201 | 2.0 | 7.0 | 0.00 | 0.36 | 0.23 | 61 | 1005.8 |
| 20260510001308 | 69 | 237 | 2.0 | 9.0 | 0.00 | 0.36 | 0.23 | 64 | 1005.6 |
| 20260510000808 | 69 | 192 | 3.0 | 10.0 | 0.00 | 0.36 | 0.23 | 63 | 1005.6 |
| 20260510000307 | 70 | 202 | 4.0 | 10.0 | 0.00 | 0.37 | 0.23 | 63 | 1005.6 |
| 20260509235807 | 70 | 205 | 2.0 | 12.0 | 0.00 | 0.37 | 0.23 | 63 | 1005.6 |
| 20260509235307 | 70 | 244 | 4.0 | 12.0 | 0.00 | 0.37 | 0.23 | 62 | 1005.4 |
| 20260509234807 | 70 | 223 | 4.0 | 13.0 | 0.00 | 0.37 | 0.23 | 62 | 1005.4 |
| 20260509234307 | 70 | 186 | 4.0 | 13.0 | 0.00 | 0.38 | 0.23 | 61 | 1005.3 |
| 20260509233807 | 70 | 232 | 2.0 | 12.0 | 0.00 | 0.38 | 0.23 | 61 | 1005.3 |
| 20260509233306 | 70 | 221 | 2.0 | 12.0 | 0.00 | 0.38 | 0.23 | 61 | 1005.2 |
| 20260509232807 | 71 | 232 | 10.0 | 13.0 | 0.00 | 0.38 | 0.23 | 60 | 1005.2 |
| 20260509231806 | 71 | 185 | 3.0 | 15.0 | 0.00 | 0.38 | 0.23 | 59 | 1005.1 |
| 20260509231306 | 71 | 227 | 5.0 | 13.0 | 0.00 | 0.38 | 0.23 | 58 | 1005.2 |
| 20260509230806 | 71 | 275 | 8.0 | 12.0 | 0.00 | 0.38 | 0.23 | 58 | 1005.2 |
| 20260509225806 | 71 | 225 | 4.0 | 15.0 | 0.00 | 0.38 | 0.23 | 57 | 1005.0 |
| 20260509225306 | 72 | 152 | 12.0 | 15.0 | 0.00 | 0.38 | 0.23 | 55 | 1005.0 |
| 20260509224305 | 73 | 223 | 7.0 | 16.0 | 0.00 | 0.38 | 0.23 | 55 | 1005.1 |
| 20260509223805 | 72 | 186 | 6.0 | 16.0 | 0.00 | 0.38 | 0.23 | 54 | 1005.0 |
| 20260509223305 | 72 | 226 | 4.0 | 14.0 | 0.00 | 0.38 | 0.23 | 55 | 1004.9 |
| 20260509222805 | 72 | 236 | 7.0 | 14.0 | 0.00 | 0.38 | 0.23 | 53 | 1005.0 |
| 20260509222307 | 73 | 259 | 9.0 | 14.0 | 0.00 | 0.38 | 0.23 | 54 | 1005.0 |
| 20260509221804 | 73 | 205 | 4.0 | 14.0 | 0.00 | 0.38 | 0.23 | 55 | 1005.0 |
| 20260509221304 | 73 | 235 | 7.0 | 14.0 | 0.00 | 0.38 | 0.23 | 51 | 1004.9 |